Time,TemperatureF,DewpointF,PressureIn,WindDirection,WindDirectionDegrees,WindSpeedMPH,WindSpeedGustMPH,Humidity,HourlyPrecipIn,Conditions,Clouds,dailyrainin,SoftwareType,DateUTC
2013-03-10 00:00:00,28.0,20.8,30.25,NE,46,0.0,0.0,74,0.00,,CLR,0.28,VWS V13.00,2013-03-10 05:00:00,
2013-03-10 00:01:00,28.0,20.8,30.25,NE,46,0.0,0.0,74,0.00,,CLR,0.00,VWS V13.00,2013-03-10 05:01:00,
2013-03-10 00:06:00,28.0,20.8,30.25,NE,46,0.0,0.0,74,0.00,,CLR,0.00,VWS V13.00,2013-03-10 05:06:00,
2013-03-10 00:11:00,28.0,20.8,30.25,NE,46,0.0,0.0,74,0.00,,CLR,0.00,VWS V13.00,2013-03-10 05:11:00,
2013-03-10 00:16:00,27.9,20.7,30.25,NE,46,0.0,0.0,74,0.00,,CLR,0.00,VWS V13.00,2013-03-10 05:16:00,
2013-03-10 00:21:00,27.7,20.8,30.25,NE,46,0.0,0.0,75,0.00,,CLR,0.00,VWS V13.00,2013-03-10 05:21:00,
2013-03-10 00:26:00,27.5,20.6,30.25,NE,46,0.0,0.0,75,0.00,,CLR,0.00,VWS V13.00,2013-03-10 05:26:00,
2013-03-10 00:31:00,27.3,20.5,30.25,NE,46,0.0,0.0,75,0.00,,CLR,0.00,VWS V13.00,2013-03-10 05:31:00,
2013-03-10 00:36:00,27.5,20.6,30.25,NE,46,0.0,0.0,75,0.00,,CLR,0.00,VWS V13.00,2013-03-10 05:36:00,
2013-03-10 00:41:00,27.9,21.3,30.25,NE,46,0.0,0.0,76,0.00,,CLR,0.00,VWS V13.00,2013-03-10 05:41:00,
2013-03-10 00:46:00,27.7,21.1,30.25,NE,46,0.0,0.0,76,0.00,,CLR,0.00,VWS V13.00,2013-03-10 05:46:00,
2013-03-10 00:51:00,27.1,20.6,30.25,NE,46,0.0,0.0,76,0.00,,CLR,0.00,VWS V13.00,2013-03-10 05:51:00,
2013-03-10 00:56:00,27.1,20.6,30.25,NE,46,0.0,0.0,76,0.00,,CLR,0.00,VWS V13.00,2013-03-10 05:56:00,
2013-03-10 01:01:00,27.3,21.1,30.25,NE,46,0.0,0.0,77,0.00,,CLR,0.00,VWS V13.00,2013-03-10 06:01:00,
2013-03-10 01:06:00,27.1,20.9,30.25,NE,46,0.0,0.0,77,0.00,,CLR,0.00,VWS V13.00,2013-03-10 06:06:00,
2013-03-10 01:12:00,27.0,20.7,30.25,NE,46,0.0,0.0,77,0.00,,CLR,0.00,VWS V13.00,2013-03-10 06:12:00,
2013-03-10 01:16:00,26.8,20.5,30.25,NE,46,0.0,0.0,77,0.00,,CLR,0.00,VWS V13.00,2013-03-10 06:16:00,
2013-03-10 01:21:00,26.8,20.5,30.25,NE,46,0.0,0.0,77,0.00,,CLR,0.00,VWS V13.00,2013-03-10 06:21:00,
2013-03-10 01:26:00,26.4,20.5,30.25,NE,46,0.0,0.0,78,0.00,,CLR,0.00,VWS V13.00,2013-03-10 06:26:00,
2013-03-10 01:32:00,26.2,20.3,30.25,NE,46,0.0,0.0,78,0.00,,CLR,0.00,VWS V13.00,2013-03-10 06:32:00,
2013-03-10 01:37:00,26.2,20.3,30.25,NE,46,0.0,0.0,78,0.00,,CLR,0.00,VWS V13.00,2013-03-10 06:37:00,
2013-03-10 01:42:00,26.1,20.1,30.25,NE,46,0.0,0.0,78,0.00,,CLR,0.00,VWS V13.00,2013-03-10 06:42:00,
2013-03-10 01:47:00,26.1,20.1,30.25,NE,46,0.0,0.0,78,0.00,,CLR,0.00,VWS V13.00,2013-03-10 06:47:00,
2013-03-10 01:52:00,25.7,19.8,30.25,NE,46,0.0,0.0,78,0.00,,CLR,0.00,VWS V13.00,2013-03-10 06:52:00,
2013-03-10 01:57:00,25.9,20.0,30.25,NE,46,0.0,0.0,78,0.00,,CLR,0.00,VWS V13.00,2013-03-10 06:57:00,
2013-03-10 03:02:00,25.9,20.0,30.25,NE,46,0.0,0.0,78,0.00,,CLR,0.00,VWS V13.00,2013-03-10 07:02:00,
2013-03-10 03:07:00,25.7,20.1,30.25,NE,46,0.0,0.0,79,0.00,,CLR,0.00,VWS V13.00,2013-03-10 07:07:00,
2013-03-10 03:12:00,25.7,20.1,30.25,NE,46,0.0,0.0,79,0.00,,CLR,0.00,VWS V13.00,2013-03-10 07:12:00,
2013-03-10 03:17:00,25.5,19.9,30.25,NE,46,2.7,2.7,79,0.00,,CLR,0.00,VWS V13.00,2013-03-10 07:17:00,
2013-03-10 03:22:00,25.3,19.8,30.25,NE,46,0.0,0.0,79,0.00,,CLR,0.00,VWS V13.00,2013-03-10 07:22:00,
2013-03-10 03:27:00,25.2,19.6,30.25,NE,46,0.0,0.0,79,0.00,,CLR,0.00,VWS V13.00,2013-03-10 07:27:00,
2013-03-10 03:32:00,25.3,19.8,30.25,NE,46,0.0,0.0,79,0.00,,CLR,0.00,VWS V13.00,2013-03-10 07:32:00,
2013-03-10 03:37:00,25.3,19.8,30.25,NE,46,0.0,0.0,79,0.00,,CLR,0.00,VWS V13.00,2013-03-10 07:37:00,
2013-03-10 03:42:00,25.3,19.8,30.25,NE,46,0.0,0.0,79,0.00,,CLR,0.00,VWS V13.00,2013-03-10 07:42:00,
2013-03-10 03:47:00,25.2,19.6,30.25,NE,46,0.0,0.0,79,0.00,,CLR,0.00,VWS V13.00,2013-03-10 07:47:00,
2013-03-10 03:52:00,25.2,19.6,30.25,NE,46,2.2,2.7,79,0.00,,CLR,0.00,VWS V13.00,2013-03-10 07:52:00,
2013-03-10 03:57:00,25.3,19.8,30.25,NE,46,2.2,3.6,79,0.00,,CLR,0.00,VWS V13.00,2013-03-10 07:57:00,
2013-03-10 04:02:00,25.5,19.9,30.25,NE,46,0.0,3.6,79,0.00,,CLR,0.00,VWS V13.00,2013-03-10 08:02:00,
2013-03-10 04:08:00,25.0,19.4,30.25,NE,46,0.0,3.6,79,0.00,,CLR,0.00,VWS V13.00,2013-03-10 08:08:00,
2013-03-10 04:13:00,24.8,19.5,30.25,NE,46,2.7,3.6,80,0.00,,CLR,0.00,VWS V13.00,2013-03-10 08:13:00,
2013-03-10 04:18:00,24.8,19.5,30.25,NE,46,0.0,3.6,80,0.00,,CLR,0.00,VWS V13.00,2013-03-10 08:18:00,
2013-03-10 04:23:00,24.8,19.5,30.25,NE,46,0.0,0.0,80,0.00,,CLR,0.00,VWS V13.00,2013-03-10 08:23:00,
2013-03-10 04:28:00,24.4,19.2,30.25,NE,46,0.0,0.0,80,0.00,,CLR,0.00,VWS V13.00,2013-03-10 08:28:00,
2013-03-10 04:33:00,24.6,19.3,30.25,NE,46,0.0,0.0,80,0.00,,CLR,0.00,VWS V13.00,2013-03-10 08:33:00,
2013-03-10 04:38:00,24.8,19.5,30.25,NE,46,0.0,0.0,80,0.00,,CLR,0.00,VWS V13.00,2013-03-10 08:38:00,
2013-03-10 04:43:00,24.8,19.5,30.25,NE,46,0.0,0.0,80,0.00,,CLR,0.00,VWS V13.00,2013-03-10 08:43:00,
2013-03-10 04:48:00,25.0,19.4,30.25,NE,46,0.0,0.0,79,0.00,,CLR,0.00,VWS V13.00,2013-03-10 08:48:00,
2013-03-10 04:53:00,25.0,19.4,30.25,NE,46,0.0,2.2,79,0.00,,CLR,0.00,VWS V13.00,2013-03-10 08:53:00,
2013-03-10 04:58:00,25.0,19.4,30.25,NE,46,0.0,2.2,79,0.00,,CLR,0.00,VWS V13.00,2013-03-10 08:58:00,
2013-03-10 05:03:00,25.0,19.4,30.25,NE,46,0.0,0.0,79,0.00,,CLR,0.00,VWS V13.00,2013-03-10 09:03:00,
2013-03-10 05:08:00,25.0,19.7,30.25,NE,46,0.0,0.0,80,0.00,,CLR,0.00,VWS V13.00,2013-03-10 09:08:00,
2013-03-10 05:13:00,25.3,20.0,30.25,South,169,0.0,3.1,80,0.00,,CLR,0.00,VWS V13.00,2013-03-10 09:13:00,
2013-03-10 05:18:00,25.3,20.0,30.25,South,169,0.0,3.1,80,0.00,,CLR,0.00,VWS V13.00,2013-03-10 09:18:00,
2013-03-10 05:23:00,25.0,19.7,30.25,South,169,0.0,0.0,80,0.00,,CLR,0.00,VWS V13.00,2013-03-10 09:23:00,
2013-03-10 05:28:00,25.7,20.4,30.25,South,169,0.0,2.2,80,0.00,,CLR,0.00,VWS V13.00,2013-03-10 09:28:00,
2013-03-10 05:33:00,25.7,20.4,30.25,South,169,0.0,2.2,80,0.00,,,0.00,VWS V13.00,2013-03-10 09:33:00,
2013-03-10 05:38:00,27.1,22.1,30.25,SW,231,2.2,3.6,81,0.00,,,0.00,VWS V13.00,2013-03-10 09:38:00,
2013-03-10 05:43:00,26.4,21.4,30.25,SW,231,0.0,2.2,81,0.00,,,0.00,VWS V13.00,2013-03-10 09:43:00,
2013-03-10 05:48:00,26.1,21.0,30.25,SW,231,0.0,2.2,81,0.00,,,0.00,VWS V13.00,2013-03-10 09:48:00,
2013-03-10 05:53:00,27.5,22.7,30.25,SW,226,2.7,3.6,82,0.00,,,0.00,VWS V13.00,2013-03-10 09:53:00,
2013-03-10 05:58:00,27.9,23.4,30.25,WSW,246,0.0,4.0,83,0.00,,,0.00,VWS V13.00,2013-03-10 09:58:00,
2013-03-10 06:03:00,27.0,22.5,30.25,WSW,246,0.0,0.0,83,0.00,,,0.00,VWS V13.00,2013-03-10 10:03:00,
2013-03-10 06:08:00,26.6,22.1,30.28,WSW,246,0.0,0.0,83,0.00,,,0.00,VWS V13.00,2013-03-10 10:08:00,
2013-03-10 06:14:00,26.2,21.8,30.28,WSW,247,0.0,0.0,83,0.00,,,0.00,VWS V13.00,2013-03-10 10:14:00,
2013-03-10 06:19:00,26.1,21.6,30.28,WSW,246,0.0,0.0,83,0.00,,,0.00,VWS V13.00,2013-03-10 10:19:00,
2013-03-10 06:24:00,27.0,22.5,30.28,WSW,246,0.0,2.7,83,0.00,,,0.00,VWS V13.00,2013-03-10 10:24:00,
2013-03-10 06:28:00,27.1,23.0,30.28,WSW,246,0.0,3.1,84,0.00,,,0.00,VWS V13.00,2013-03-10 10:28:00,
2013-03-10 06:34:00,27.0,22.8,30.28,WSW,246,0.0,3.1,84,0.00,,CLR,0.00,VWS V13.00,2013-03-10 10:34:00,
2013-03-10 06:39:00,26.8,22.6,30.28,WSW,247,0.0,3.1,84,0.00,,CLR,0.00,VWS V13.00,2013-03-10 10:39:00,
2013-03-10 06:44:00,26.2,22.1,30.28,WSW,246,0.0,0.0,84,0.00,,CLR,0.00,VWS V13.00,2013-03-10 10:44:00,
2013-03-10 06:49:00,26.1,21.9,30.28,WSW,246,0.0,0.0,84,0.00,,CLR,0.00,VWS V13.00,2013-03-10 10:49:00,
2013-03-10 06:54:00,25.9,21.7,30.28,WSW,247,0.0,0.0,84,0.00,,CLR,0.00,VWS V13.00,2013-03-10 10:54:00,
2013-03-10 06:59:00,26.1,21.9,30.28,WSW,246,0.0,0.0,84,0.00,,CLR,0.00,VWS V13.00,2013-03-10 10:59:00,
2013-03-10 07:04:00,26.1,21.9,30.28,WSW,246,0.0,0.0,84,0.00,,CLR,0.00,VWS V13.00,2013-03-10 11:04:00,
2013-03-10 07:09:00,25.9,21.7,30.28,WSW,246,0.0,0.0,84,0.00,,CLR,0.00,VWS V13.00,2013-03-10 11:09:00,
2013-03-10 07:14:00,25.9,21.7,30.28,WSW,246,0.0,0.0,84,0.00,,CLR,0.00,VWS V13.00,2013-03-10 11:14:00,
2013-03-10 07:19:00,25.9,21.7,30.28,WSW,246,0.0,0.0,84,0.00,,CLR,0.00,VWS V13.00,2013-03-10 11:19:00,
2013-03-10 07:24:00,26.1,22.2,30.28,WSW,246,0.0,0.0,85,0.00,,CLR,0.00,VWS V13.00,2013-03-10 11:24:00,
2013-03-10 07:29:00,26.1,22.2,30.28,WSW,246,0.0,0.0,85,0.00,,CLR,0.00,VWS V13.00,2013-03-10 11:29:00,
2013-03-10 07:34:00,25.9,22.0,30.28,WSW,246,0.0,0.0,85,0.00,,CLR,0.00,VWS V13.00,2013-03-10 11:34:00,
2013-03-10 07:39:00,26.2,22.6,30.28,WSW,247,0.0,0.0,86,0.00,,CLR,0.00,VWS V13.00,2013-03-10 11:39:00,
2013-03-10 07:44:00,26.6,23.0,30.28,WSW,246,0.0,0.0,86,0.00,,CLR,0.00,VWS V13.00,2013-03-10 11:44:00,
2013-03-10 07:49:00,26.6,23.0,30.28,WSW,246,0.0,0.0,86,0.00,,CLR,0.00,VWS V13.00,2013-03-10 11:49:00,
2013-03-10 07:54:00,26.8,23.2,30.28,WSW,246,0.0,0.0,86,0.00,,CLR,0.00,VWS V13.00,2013-03-10 11:54:00,
2013-03-10 07:59:00,27.0,23.3,30.28,WSW,246,0.0,0.0,86,0.00,,CLR,0.00,VWS V13.00,2013-03-10 11:59:00,
2013-03-10 08:04:00,27.5,23.9,30.28,WSW,246,0.0,0.0,86,0.00,,CLR,0.00,VWS V13.00,2013-03-10 12:04:00,
2013-03-10 08:09:00,28.2,24.6,30.28,WSW,246,0.0,3.1,86,0.00,,CLR,0.00,VWS V13.00,2013-03-10 12:09:00,
2013-03-10 08:14:00,28.8,25.1,30.28,WSW,246,0.0,3.1,86,0.00,,CLR,0.00,VWS V13.00,2013-03-10 12:14:00,
2013-03-10 08:20:00,29.3,25.6,30.28,WSW,246,0.0,3.1,86,0.00,,CLR,0.00,VWS V13.00,2013-03-10 12:20:00,
2013-03-10 08:25:00,30.0,26.4,30.28,WSW,246,0.0,0.0,86,0.00,,CLR,0.00,VWS V13.00,2013-03-10 12:25:00,
2013-03-10 08:30:00,31.3,27.6,30.28,WSW,246,0.0,0.0,86,0.00,,CLR,0.00,VWS V13.00,2013-03-10 12:30:00,
2013-03-10 08:35:00,32.4,28.6,30.28,WSW,246,0.0,0.0,86,0.00,,CLR,0.00,VWS V13.00,2013-03-10 12:35:00,
2013-03-10 08:40:00,33.1,29.4,30.28,WSW,246,0.0,0.0,86,0.00,,CLR,0.00,VWS V13.00,2013-03-10 12:40:00,
2013-03-10 08:45:00,34.0,30.0,30.28,WSW,246,0.0,0.0,85,0.00,,CLR,0.00,VWS V13.00,2013-03-10 12:45:00,
2013-03-10 08:50:00,35.1,31.0,30.28,SE,140,2.2,4.0,85,0.00,,CLR,0.00,VWS V13.00,2013-03-10 12:50:00,
2013-03-10 08:55:00,36.3,32.0,30.28,SE,136,2.2,5.8,84,0.00,,CLR,0.00,VWS V13.00,2013-03-10 12:55:00,
2013-03-10 09:00:00,36.9,31.9,30.28,SE,140,0.0,7.6,82,0.00,,CLR,0.00,VWS V13.00,2013-03-10 13:00:00,
2013-03-10 09:05:00,37.4,31.5,30.28,SE,144,4.9,5.8,79,0.00,,CLR,0.00,VWS V13.00,2013-03-10 13:05:00,
2013-03-10 09:10:00,37.9,31.4,30.28,SE,130,3.1,5.8,77,0.00,,CLR,0.00,VWS V13.00,2013-03-10 13:10:00,
2013-03-10 09:15:00,38.5,31.3,30.28,SE,141,7.6,8.1,75,0.00,,CLR,0.00,VWS V13.00,2013-03-10 13:15:00,
2013-03-10 09:20:00,38.8,30.9,30.28,SE,125,4.0,8.1,73,0.00,,CLR,0.00,VWS V13.00,2013-03-10 13:20:00,
2013-03-10 09:25:00,38.8,29.5,30.28,ESE,112,2.7,4.0,69,0.00,,CLR,0.00,VWS V13.00,2013-03-10 13:25:00,
2013-03-10 09:30:00,39.4,29.7,30.28,ESE,103,6.3,6.3,68,0.00,,CLR,0.00,VWS V13.00,2013-03-10 13:30:00,
2013-03-10 09:35:00,39.6,29.1,30.28,ESE,109,3.6,6.3,66,0.00,,CLR,0.00,VWS V13.00,2013-03-10 13:35:00,
2013-03-10 09:40:00,40.3,29.5,30.28,ESE,109,3.1,6.3,65,0.00,,CLR,0.00,VWS V13.00,2013-03-10 13:40:00,
2013-03-10 09:45:00,40.6,29.4,30.28,ESE,109,3.1,3.6,64,0.00,,CLR,0.00,VWS V13.00,2013-03-10 13:45:00,
2013-03-10 09:50:00,40.8,28.4,30.28,East,94,3.1,4.0,61,0.00,,CLR,0.00,VWS V13.00,2013-03-10 13:50:00,
2013-03-10 09:55:00,41.5,28.3,30.28,East,98,2.7,4.9,59,0.00,,CLR,0.00,VWS V13.00,2013-03-10 13:55:00,
2013-03-10 10:00:00,41.9,27.8,30.28,ESE,111,3.6,4.0,57,0.00,,CLR,0.00,VWS V13.00,2013-03-10 14:00:00,
2013-03-10 10:05:00,42.1,27.1,30.28,ESE,105,4.0,6.7,55,0.00,,CLR,0.00,VWS V13.00,2013-03-10 14:05:00,
2013-03-10 10:10:00,43.3,28.3,30.28,East,99,5.4,6.7,55,0.00,,CLR,0.00,VWS V13.00,2013-03-10 14:10:00,
2013-03-10 10:15:00,44.1,28.5,30.28,SSE,147,5.4,7.6,54,0.00,,CLR,0.00,VWS V13.00,2013-03-10 14:15:00,
2013-03-10 10:20:00,44.8,28.7,30.28,SE,141,4.9,5.8,53,0.00,,CLR,0.00,VWS V13.00,2013-03-10 14:20:00,
2013-03-10 10:26:00,45.7,29.1,30.28,SE,130,2.7,6.3,52,0.00,,CLR,0.00,VWS V13.00,2013-03-10 14:26:00,
2013-03-10 10:31:00,46.4,29.3,30.28,ESE,117,2.7,6.3,51,0.00,,CLR,0.00,VWS V13.00,2013-03-10 14:31:00,
2013-03-10 10:36:00,46.8,28.6,30.28,East,91,4.0,6.3,49,0.00,,CLR,0.00,VWS V13.00,2013-03-10 14:36:00,
2013-03-10 10:41:00,47.1,28.5,30.28,SSE,158,6.7,6.7,48,0.00,,CLR,0.00,VWS V13.00,2013-03-10 14:41:00,
2013-03-10 10:46:00,47.7,28.4,30.28,ESE,114,0.0,6.7,47,0.00,,CLR,0.00,VWS V13.00,2013-03-10 14:46:00,
2013-03-10 10:51:00,48.6,28.7,30.28,SSE,149,5.4,6.7,46,0.00,,CLR,0.00,VWS V13.00,2013-03-10 14:51:00,
2013-03-10 10:56:00,48.7,27.8,30.28,South,180,6.3,6.7,44,0.00,,CLR,0.00,VWS V13.00,2013-03-10 14:56:00,
2013-03-10 11:01:00,48.9,27.4,30.28,ESE,123,3.1,5.4,43,0.00,,CLR,0.00,VWS V13.00,2013-03-10 15:01:00,
2013-03-10 11:06:00,48.9,27.4,30.28,SSE,166,5.4,8.3,43,0.00,,CLR,0.00,VWS V13.00,2013-03-10 15:06:00,
2013-03-10 11:11:00,49.1,27.0,30.28,SE,130,6.3,8.3,42,0.00,,CLR,0.00,VWS V13.00,2013-03-10 15:11:00,
2013-03-10 11:16:00,49.6,27.5,30.28,SE,132,3.1,8.3,42,0.00,,CLR,0.00,VWS V13.00,2013-03-10 15:16:00,
2013-03-10 11:21:00,48.9,26.9,30.28,ESE,120,4.0,4.0,42,0.00,,CLR,0.00,VWS V13.00,2013-03-10 15:21:00,
2013-03-10 11:26:00,48.9,26.9,30.28,ESE,113,5.4,5.4,42,0.00,,CLR,0.00,VWS V13.00,2013-03-10 15:26:00,
2013-03-10 11:31:00,50.2,28.0,30.28,SE,140,3.1,7.6,42,0.00,,CLR,0.00,VWS V13.00,2013-03-10 15:31:00,
2013-03-10 11:36:00,50.2,27.4,30.28,ESE,111,0.0,7.6,41,0.00,,CLR,0.00,VWS V13.00,2013-03-10 15:36:00,
2013-03-10 11:41:00,50.5,27.1,30.28,SE,138,5.4,6.3,40,0.00,,CLR,0.00,VWS V13.00,2013-03-10 15:41:00,
2013-03-10 11:46:00,51.3,27.8,30.28,South,177,3.6,6.3,40,0.00,,CLR,0.00,VWS V13.00,2013-03-10 15:46:00,
2013-03-10 11:51:00,51.3,27.8,30.28,SSE,153,4.0,8.3,40,0.00,,CLR,0.00,VWS V13.00,2013-03-10 15:51:00,
2013-03-10 11:56:00,50.5,26.5,30.28,South,174,4.0,8.7,39,0.00,,CLR,0.00,VWS V13.00,2013-03-10 15:56:00,
2013-03-10 12:01:00,50.2,26.8,30.28,SE,128,5.4,5.8,40,0.00,,CLR,0.00,VWS V13.00,2013-03-10 16:01:00,
2013-03-10 12:06:00,50.5,27.1,30.28,South,177,4.9,5.8,40,0.00,,CLR,0.00,VWS V13.00,2013-03-10 16:06:00,
2013-03-10 12:11:00,50.7,26.7,30.28,SE,142,5.8,5.8,39,0.00,,CLR,0.00,VWS V13.00,2013-03-10 16:11:00,
2013-03-10 12:16:00,51.6,27.5,30.28,SE,146,8.1,8.3,39,0.00,,CLR,0.00,VWS V13.00,2013-03-10 16:16:00,
2013-03-10 12:21:00,52.5,28.3,30.28,ESE,121,4.0,6.7,39,0.00,,CLR,0.00,VWS V13.00,2013-03-10 16:21:00,
2013-03-10 12:26:00,53.2,28.9,30.28,SSW,206,5.8,8.3,39,0.00,,CLR,0.00,VWS V13.00,2013-03-10 16:26:00,
2013-03-10 12:31:00,53.8,28.8,30.28,SSE,158,3.6,8.3,38,0.00,,CLR,0.00,VWS V13.00,2013-03-10 16:31:00,
2013-03-10 12:36:00,54.3,29.3,30.28,ESE,112,5.8,8.3,38,0.00,,CLR,0.00,VWS V13.00,2013-03-10 16:36:00,
2013-03-10 12:42:00,55.6,30.4,30.28,SE,136,6.3,8.1,38,0.00,,CLR,0.00,VWS V13.00,2013-03-10 16:42:00,
2013-03-10 12:47:00,55.2,30.1,30.28,SE,124,4.0,8.3,38,0.00,,CLR,0.00,VWS V13.00,2013-03-10 16:47:00,
2013-03-10 12:52:00,55.2,30.1,30.28,SE,138,3.6,8.3,38,0.00,,CLR,0.00,VWS V13.00,2013-03-10 16:52:00,
2013-03-10 12:57:00,55.9,30.1,30.28,SSE,157,8.1,8.3,37,0.00,,CLR,0.00,VWS V13.00,2013-03-10 16:57:00,
2013-03-10 13:02:00,55.9,30.1,30.28,South,185,7.6,7.6,37,0.00,,CLR,0.00,VWS V13.00,2013-03-10 17:02:00,
2013-03-10 13:07:00,55.9,29.4,30.28,South,174,5.8,8.1,36,0.00,,CLR,0.00,VWS V13.00,2013-03-10 17:07:00,
2013-03-10 13:12:00,56.7,30.7,30.28,WSW,249,3.1,8.1,37,0.00,,CLR,0.00,VWS V13.00,2013-03-10 17:12:00,
2013-03-10 13:17:00,57.0,30.4,30.28,SW,234,5.4,8.3,36,0.00,,CLR,0.00,VWS V13.00,2013-03-10 17:17:00,
2013-03-10 13:22:00,57.0,30.4,30.25,SW,234,3.1,6.7,36,0.00,,CLR,0.00,VWS V13.00,2013-03-10 17:22:00,
2013-03-10 13:27:00,57.4,30.7,30.25,SE,130,5.8,6.7,36,0.00,,CLR,0.00,VWS V13.00,2013-03-10 17:27:00,
2013-03-10 13:32:00,56.8,30.2,30.25,SSE,152,6.3,8.3,36,0.00,,CLR,0.00,VWS V13.00,2013-03-10 17:32:00,
2013-03-10 13:37:00,55.2,28.8,30.25,SW,216,5.4,8.3,36,0.00,,CLR,0.00,VWS V13.00,2013-03-10 17:37:00,
2013-03-10 13:42:00,54.9,28.4,30.25,South,182,5.4,6.3,36,0.00,,CLR,0.00,VWS V13.00,2013-03-10 17:42:00,
2013-03-10 13:47:00,54.0,27.6,30.25,SSW,212,4.9,7.6,36,0.00,,CLR,0.00,VWS V13.00,2013-03-10 17:47:00,
2013-03-10 13:52:00,54.3,28.0,30.25,SSW,192,6.3,7.6,36,0.00,,CLR,0.00,VWS V13.00,2013-03-10 17:52:00,
2013-03-10 13:58:00,54.5,28.1,30.25,SSE,168,5.4,7.6,36,0.00,,CLR,0.00,VWS V13.00,2013-03-10 17:58:00,
2013-03-10 14:03:00,54.5,28.1,30.25,SSW,208,6.3,6.3,36,0.00,,CLR,0.00,VWS V13.00,2013-03-10 18:03:00,
2013-03-10 14:08:00,55.2,29.4,30.25,SSE,153,5.8,8.3,37,0.00,,CLR,0.00,VWS V13.00,2013-03-10 18:08:00,
2013-03-10 14:13:00,55.9,29.4,30.25,South,179,4.0,8.7,36,0.00,,CLR,0.00,VWS V13.00,2013-03-10 18:13:00,
2013-03-10 14:18:00,56.5,29.9,30.25,SSE,154,5.4,8.7,36,0.00,,CLR,0.00,VWS V13.00,2013-03-10 18:18:00,
2013-03-10 14:23:00,57.6,30.8,30.25,SE,136,7.6,7.6,36,0.00,,CLR,0.00,VWS V13.00,2013-03-10 18:23:00,
2013-03-10 14:28:00,58.1,31.3,30.25,SSE,156,8.7,8.7,36,0.00,,CLR,0.00,VWS V13.00,2013-03-10 18:28:00,
2013-03-10 14:33:00,57.7,30.3,30.25,South,184,6.3,8.7,35,0.00,,BKN120,0.00,VWS V13.00,2013-03-10 18:33:00,
2013-03-10 14:38:00,57.2,29.8,30.22,SSE,158,4.0,8.7,35,0.00,,BKN120,0.00,VWS V13.00,2013-03-10 18:38:00,
2013-03-10 14:43:00,57.2,29.8,30.22,SW,218,5.8,6.3,35,0.00,,BKN120,0.00,VWS V13.00,2013-03-10 18:43:00,
2013-03-10 14:48:00,56.7,30.0,30.22,SE,130,10.5,10.5,36,0.00,,BKN120,0.00,VWS V13.00,2013-03-10 18:48:00,
2013-03-10 14:53:00,55.9,28.7,30.22,WSW,256,4.9,10.5,35,0.00,,BKN120,0.00,VWS V13.00,2013-03-10 18:53:00,
2013-03-10 14:58:00,55.6,28.4,30.22,South,176,5.8,10.5,35,0.00,,BKN120,0.00,VWS V13.00,2013-03-10 18:58:00,
2013-03-10 15:03:00,54.9,28.4,30.22,SSW,212,5.8,6.7,36,0.00,,BKN120,0.00,VWS V13.00,2013-03-10 19:03:00,
2013-03-10 15:08:00,54.9,28.4,30.22,South,178,5.8,8.7,36,0.00,,BKN120,0.00,VWS V13.00,2013-03-10 19:08:00,
2013-03-10 15:13:00,55.4,28.2,30.22,SE,146,7.6,8.7,35,0.00,,BKN120,0.00,VWS V13.00,2013-03-10 19:13:00,
2013-03-10 15:18:00,55.4,28.2,30.22,SSW,210,4.9,10.1,35,0.00,,BKN120,0.00,VWS V13.00,2013-03-10 19:18:00,
2013-03-10 15:23:00,55.6,28.4,30.22,ESE,121,5.4,8.3,35,0.00,,BKN120,0.00,VWS V13.00,2013-03-10 19:23:00,
2013-03-10 15:28:00,55.8,28.5,30.22,SE,135,4.0,8.3,35,0.00,,BKN120,0.00,VWS V13.00,2013-03-10 19:28:00,
2013-03-10 15:33:00,55.6,28.4,30.22,SE,128,5.4,8.7,35,0.00,,FEW120,0.00,VWS V13.00,2013-03-10 19:33:00,
2013-03-10 15:38:00,55.0,27.9,30.22,South,182,6.3,8.7,35,0.00,,FEW120,0.00,VWS V13.00,2013-03-10 19:38:00,
2013-03-10 15:43:00,55.0,27.9,30.22,SSE,165,5.4,8.7,35,0.00,,FEW120,0.00,VWS V13.00,2013-03-10 19:43:00,
2013-03-10 15:49:00,54.9,27.8,30.22,SSE,162,5.8,8.7,35,0.00,,FEW120,0.00,VWS V13.00,2013-03-10 19:49:00,
2013-03-10 15:54:00,54.7,27.6,30.22,SSE,168,6.7,8.7,35,0.00,,FEW120,0.00,VWS V13.00,2013-03-10 19:54:00,
2013-03-10 15:59:00,54.9,28.4,30.22,South,185,5.4,8.7,36,0.00,,FEW120,0.00,VWS V13.00,2013-03-10 19:59:00,
2013-03-10 16:04:00,54.9,28.4,30.22,South,186,8.1,8.7,36,0.00,,FEW120,0.00,VWS V13.00,2013-03-10 20:04:00,
2013-03-10 16:09:00,54.9,28.4,30.22,SE,143,5.4,8.7,36,0.00,,FEW120,0.00,VWS V13.00,2013-03-10 20:09:00,
2013-03-10 16:14:00,55.0,28.6,30.22,SSE,157,12.3,12.3,36,0.00,,FEW120,0.00,VWS V13.00,2013-03-10 20:14:00,
2013-03-10 16:19:00,54.9,28.4,30.22,South,169,5.8,12.3,36,0.00,,FEW120,0.00,VWS V13.00,2013-03-10 20:19:00,
2013-03-10 16:24:00,54.3,28.0,30.22,SSE,160,7.6,9.2,36,0.00,,FEW120,0.00,VWS V13.00,2013-03-10 20:24:00,
2013-03-10 16:29:00,54.0,27.6,30.22,South,170,5.4,9.2,36,0.00,,FEW120,0.00,VWS V13.00,2013-03-10 20:29:00,
2013-03-10 16:34:00,54.0,27.6,30.22,SSE,150,5.4,10.1,36,0.00,,CLR,0.00,VWS V13.00,2013-03-10 20:34:00,
2013-03-10 16:39:00,53.6,27.3,30.22,South,186,5.8,10.1,36,0.00,,CLR,0.00,VWS V13.00,2013-03-10 20:39:00,
2013-03-10 16:44:00,53.4,27.8,30.22,SE,144,6.3,6.3,37,0.00,,CLR,0.00,VWS V13.00,2013-03-10 20:44:00,
2013-03-10 16:49:00,53.2,27.7,30.22,South,171,4.0,7.6,37,0.00,,CLR,0.00,VWS V13.00,2013-03-10 20:49:00,
2013-03-10 16:54:00,52.9,27.3,30.19,SSE,160,6.7,8.3,37,0.00,,CLR,0.00,VWS V13.00,2013-03-10 20:54:00,
2013-03-10 16:59:00,52.9,28.0,30.19,SSE,160,6.3,8.3,38,0.00,,CLR,0.00,VWS V13.00,2013-03-10 20:59:00,
2013-03-10 17:04:00,52.5,27.7,30.19,South,170,3.6,8.1,38,0.00,,CLR,0.00,VWS V13.00,2013-03-10 21:04:00,
2013-03-10 17:09:00,52.2,27.3,30.19,SSW,204,4.9,8.7,38,0.00,,CLR,0.00,VWS V13.00,2013-03-10 21:09:00,
2013-03-10 17:15:00,52.0,27.2,30.19,SW,221,4.0,8.7,38,0.00,,CLR,0.00,VWS V13.00,2013-03-10 21:15:00,
2013-03-10 17:20:00,51.6,27.5,30.19,SSW,197,5.8,10.5,39,0.00,,CLR,0.00,VWS V13.00,2013-03-10 21:20:00,
2013-03-10 17:25:00,51.1,27.0,30.19,SSE,157,5.4,8.7,39,0.00,,CLR,0.00,VWS V13.00,2013-03-10 21:25:00,
2013-03-10 17:30:00,50.7,26.7,30.19,South,175,4.9,10.5,39,0.00,,CLR,0.00,VWS V13.00,2013-03-10 21:30:00,
2013-03-10 17:35:00,50.7,26.7,30.19,SW,219,3.6,10.5,39,0.00,,CLR,0.00,VWS V13.00,2013-03-10 21:35:00,
2013-03-10 17:40:00,50.9,26.8,30.19,South,186,4.9,10.5,39,0.00,,CLR,0.00,VWS V13.00,2013-03-10 21:40:00,
2013-03-10 17:45:00,50.9,27.5,30.19,South,173,6.7,8.3,40,0.00,,CLR,0.00,VWS V13.00,2013-03-10 21:45:00,
2013-03-10 17:50:00,50.9,27.5,30.19,WSW,242,3.6,8.7,40,0.00,,CLR,0.00,VWS V13.00,2013-03-10 21:50:00,
2013-03-10 17:55:00,50.5,27.7,30.19,SSW,192,4.9,8.7,41,0.00,,CLR,0.00,VWS V13.00,2013-03-10 21:55:00,
2013-03-10 18:00:00,50.4,27.6,30.19,South,174,4.9,8.7,41,0.00,,CLR,0.00,VWS V13.00,2013-03-10 22:00:00,
2013-03-10 18:05:00,50.0,27.8,30.19,SE,130,3.1,7.6,42,0.00,,CLR,0.00,VWS V13.00,2013-03-10 22:05:00,
2013-03-10 18:10:00,49.3,28.3,30.19,SE,125,5.4,8.7,44,0.00,,CLR,0.00,VWS V13.00,2013-03-10 22:10:00,
2013-03-10 18:15:00,48.9,28.5,30.19,SE,137,4.9,8.7,45,0.00,,CLR,0.00,VWS V13.00,2013-03-10 22:15:00,
2013-03-10 18:20:00,48.6,28.7,30.22,SE,133,5.8,5.8,46,0.00,,CLR,0.00,VWS V13.00,2013-03-10 22:20:00,
2013-03-10 18:25:00,48.2,28.9,30.22,South,190,2.7,6.3,47,0.00,,CLR,0.00,VWS V13.00,2013-03-10 22:25:00,
2013-03-10 18:30:00,47.7,29.0,30.22,SE,130,6.3,8.7,48,0.00,,CLR,0.00,VWS V13.00,2013-03-10 22:30:00,
2013-03-10 18:35:00,47.3,28.6,30.22,SSE,156,3.6,8.7,48,0.00,,CLR,0.00,VWS V13.00,2013-03-10 22:35:00,
2013-03-10 18:41:00,46.8,28.6,30.22,SE,143,5.8,5.8,49,0.00,,CLR,0.00,VWS V13.00,2013-03-10 22:41:00,
2013-03-10 18:46:00,46.4,28.3,30.22,South,186,5.8,6.3,49,0.00,,CLR,0.00,VWS V13.00,2013-03-10 22:46:00,
2013-03-10 18:51:00,46.0,28.5,30.22,SSW,210,3.6,7.2,50,0.00,,CLR,0.00,VWS V13.00,2013-03-10 22:51:00,
2013-03-10 18:56:00,45.7,28.1,30.22,SSE,147,3.6,7.2,50,0.00,,CLR,0.00,VWS V13.00,2013-03-10 22:56:00,
2013-03-10 19:01:00,45.3,28.3,30.22,South,169,4.9,5.4,51,0.00,,CLR,0.00,VWS V13.00,2013-03-10 23:01:00,
2013-03-10 19:06:00,45.1,28.1,30.22,SSE,160,2.2,5.8,51,0.00,,CLR,0.00,VWS V13.00,2013-03-10 23:06:00,
2013-03-10 19:11:00,45.0,28.4,30.22,SE,133,5.4,5.8,52,0.00,,CLR,0.00,VWS V13.00,2013-03-10 23:11:00,
2013-03-10 19:16:00,44.6,28.1,30.22,SE,135,5.8,6.3,52,0.00,,CLR,0.00,VWS V13.00,2013-03-10 23:16:00,
2013-03-10 19:21:00,44.2,28.2,30.22,SSE,162,4.0,4.0,53,0.00,,CLR,0.00,VWS V13.00,2013-03-10 23:21:00,
2013-03-10 19:26:00,44.1,28.0,30.22,SSE,159,5.4,7.6,53,0.00,,CLR,0.00,VWS V13.00,2013-03-10 23:26:00,
2013-03-10 19:31:00,43.7,28.2,30.22,SSE,149,3.6,7.6,54,0.00,,CLR,0.00,VWS V13.00,2013-03-10 23:31:00,
2013-03-10 19:36:00,43.3,28.3,30.22,ESE,115,7.6,8.1,55,0.00,,CLR,0.00,VWS V13.00,2013-03-10 23:36:00,
2013-03-10 19:41:00,42.8,27.8,30.22,SSE,168,5.8,5.8,55,0.00,,CLR,0.00,VWS V13.00,2013-03-10 23:41:00,
2013-03-10 19:46:00,42.4,27.9,30.22,SSE,153,2.7,5.8,56,0.00,,CLR,0.00,VWS V13.00,2013-03-10 23:46:00,
2013-03-10 19:51:00,42.1,28.0,30.22,SSE,155,4.0,6.3,57,0.00,,CLR,0.00,VWS V13.00,2013-03-10 23:51:00,
2013-03-10 19:56:00,41.7,27.6,30.22,SE,124,5.4,7.6,57,0.00,,CLR,0.00,VWS V13.00,2013-03-10 23:56:00,
2013-03-10 20:01:00,41.4,27.7,30.22,SSW,195,3.1,5.8,58,0.00,,CLR,0.00,VWS V13.00,2013-03-11 00:01:00,
2013-03-10 20:06:00,41.2,27.5,30.22,SSW,194,0.0,5.8,58,0.00,,CLR,0.00,VWS V13.00,2013-03-11 00:06:00,
2013-03-10 20:11:00,40.8,27.6,30.22,SE,143,4.0,5.8,59,0.00,,CLR,0.00,VWS V13.00,2013-03-11 00:11:00,
2013-03-10 20:17:00,40.5,27.3,30.22,SE,126,3.1,6.3,59,0.00,,CLR,0.00,VWS V13.00,2013-03-11 00:17:00,
2013-03-10 20:22:00,40.3,27.5,30.22,SSE,166,3.6,4.9,60,0.00,,CLR,0.00,VWS V13.00,2013-03-11 00:22:00,
2013-03-10 20:27:00,39.9,27.2,30.22,SSW,203,4.9,6.7,60,0.00,,CLR,0.00,VWS V13.00,2013-03-11 00:27:00,
2013-03-10 20:32:00,39.6,26.8,30.22,SSE,162,2.2,8.3,60,0.00,,CLR,0.00,VWS V13.00,2013-03-11 00:32:00,
2013-03-10 20:37:00,39.2,26.5,30.22,South,176,4.0,8.3,60,0.00,,CLR,0.00,VWS V13.00,2013-03-11 00:37:00,
2013-03-10 20:42:00,38.8,26.2,30.22,SSE,160,6.3,6.3,60,0.00,,CLR,0.00,VWS V13.00,2013-03-11 00:42:00,
2013-03-10 20:47:00,38.7,26.0,30.22,South,169,3.1,8.1,60,0.00,,CLR,0.00,VWS V13.00,2013-03-11 00:47:00,
2013-03-10 20:52:00,38.3,26.0,30.22,South,169,5.4,8.1,61,0.00,,CLR,0.00,VWS V13.00,2013-03-11 00:52:00,
2013-03-10 20:57:00,37.9,25.7,30.22,SW,223,5.4,8.1,61,0.00,,CLR,0.00,VWS V13.00,2013-03-11 00:57:00,
2013-03-10 21:02:00,37.6,25.8,30.22,SE,144,7.6,7.6,62,0.00,,CLR,0.00,VWS V13.00,2013-03-11 01:02:00,
2013-03-10 21:07:00,37.4,26.0,30.22,SSE,168,5.4,7.6,63,0.00,,CLR,0.00,VWS V13.00,2013-03-11 01:07:00,
2013-03-10 21:12:00,37.0,26.4,30.22,SW,226,3.6,8.3,65,0.00,,CLR,0.00,VWS V13.00,2013-03-11 01:12:00,
2013-03-10 21:17:00,36.9,26.6,30.22,SW,233,3.6,8.3,66,0.00,,CLR,0.00,VWS V13.00,2013-03-11 01:17:00,
2013-03-10 21:22:00,36.5,26.6,30.22,SW,218,6.3,6.3,67,0.00,,CLR,0.00,VWS V13.00,2013-03-11 01:22:00,
2013-03-10 21:27:00,36.3,26.8,30.22,South,170,5.8,8.7,68,0.00,,CLR,0.00,VWS V13.00,2013-03-11 01:27:00,
2013-03-10 21:32:00,36.1,27.0,30.22,South,183,5.8,8.7,69,0.00,,CLR,0.00,VWS V13.00,2013-03-11 01:32:00,
2013-03-10 21:38:00,36.0,26.8,30.22,SSW,196,5.4,8.7,69,0.00,,CLR,0.00,VWS V13.00,2013-03-11 01:38:00,
2013-03-10 21:43:00,35.8,27.0,30.22,SSE,165,7.2,7.6,70,0.00,,CLR,0.00,VWS V13.00,2013-03-11 01:43:00,
2013-03-10 21:48:00,35.6,27.1,30.22,SSE,164,5.8,8.3,71,0.00,,CLR,0.00,VWS V13.00,2013-03-11 01:48:00,
2013-03-10 21:53:00,35.6,27.1,30.22,South,186,5.4,8.3,71,0.00,,CLR,0.00,VWS V13.00,2013-03-11 01:53:00,
2013-03-10 21:58:00,35.4,27.3,30.22,SSE,147,4.9,8.3,72,0.00,,CLR,0.00,VWS V13.00,2013-03-11 01:58:00,
2013-03-10 22:03:00,35.4,27.3,30.22,SSE,162,5.4,8.7,72,0.00,,CLR,0.00,VWS V13.00,2013-03-11 02:03:00,
2013-03-10 22:08:00,35.2,27.5,30.22,SSE,167,4.9,8.7,73,0.00,,CLR,0.00,VWS V13.00,2013-03-11 02:08:00,
2013-03-10 22:13:00,35.1,27.6,30.22,SSW,194,4.0,8.7,74,0.00,,CLR,0.00,VWS V13.00,2013-03-11 02:13:00,
2013-03-10 22:18:00,34.9,27.5,30.22,South,172,8.3,8.7,74,0.00,,CLR,0.00,VWS V13.00,2013-03-11 02:18:00,
2013-03-10 22:23:00,34.9,27.8,30.22,SSW,210,3.6,6.3,75,0.00,,CLR,0.00,VWS V13.00,2013-03-11 02:23:00,
2013-03-10 22:28:00,34.9,28.1,30.22,SSE,158,7.6,7.6,76,0.00,,CLR,0.00,VWS V13.00,2013-03-11 02:28:00,
2013-03-10 22:33:00,34.7,27.9,30.22,SSE,168,5.8,8.1,76,0.00,,CLR,0.00,VWS V13.00,2013-03-11 02:33:00,
2013-03-10 22:38:00,34.5,27.8,30.22,South,178,4.0,8.1,76,0.00,,CLR,0.00,VWS V13.00,2013-03-11 02:38:00,
2013-03-10 22:43:00,34.5,28.1,30.22,South,188,2.2,5.4,77,0.00,,CLR,0.00,VWS V13.00,2013-03-11 02:43:00,
2013-03-10 22:48:00,34.5,28.1,30.22,South,173,4.9,8.7,77,0.00,,CLR,0.00,VWS V13.00,2013-03-11 02:48:00,
2013-03-10 22:53:00,34.5,28.1,30.22,SSW,200,4.9,8.7,77,0.00,,CLR,0.00,VWS V13.00,2013-03-11 02:53:00,
2013-03-10 22:58:00,34.5,28.4,30.22,South,179,6.3,8.7,78,0.00,,CLR,0.00,VWS V13.00,2013-03-11 02:58:00,
2013-03-10 23:03:00,34.3,28.2,30.22,SSE,151,5.4,7.2,78,0.00,,CLR,0.00,VWS V13.00,2013-03-11 03:03:00,
2013-03-10 23:08:00,34.3,28.2,30.22,South,173,4.9,7.2,78,0.00,,CLR,0.00,VWS V13.00,2013-03-11 03:08:00,
2013-03-10 23:13:00,34.3,28.5,30.22,SSE,156,5.8,7.2,79,0.00,,CLR,0.00,VWS V13.00,2013-03-11 03:13:00,
2013-03-10 23:18:00,34.3,28.5,30.22,SSE,159,4.0,7.2,79,0.00,,CLR,0.00,VWS V13.00,2013-03-11 03:18:00,
2013-03-10 23:23:00,34.2,28.3,30.22,SSW,201,2.2,3.6,79,0.00,,CLR,0.00,VWS V13.00,2013-03-11 03:23:00,
2013-03-10 23:29:00,34.2,28.3,30.22,South,176,4.0,5.4,79,0.00,,CLR,0.00,VWS V13.00,2013-03-11 03:29:00,
2013-03-10 23:34:00,34.2,28.3,30.22,SE,146,6.3,8.7,79,0.00,,CLR,0.00,VWS V13.00,2013-03-11 03:34:00,
2013-03-10 23:39:00,34.2,28.6,30.22,SSE,160,4.9,8.7,80,0.00,,CLR,0.00,VWS V13.00,2013-03-11 03:39:00,
2013-03-10 23:44:00,34.2,28.6,30.22,South,182,3.6,5.4,80,0.00,,CLR,0.00,VWS V13.00,2013-03-11 03:44:00,
2013-03-10 23:49:00,34.2,28.6,30.22,SW,227,0.0,5.4,80,0.00,,CLR,0.00,VWS V13.00,2013-03-11 03:49:00,
2013-03-10 23:54:00,34.2,29.0,30.22,SSW,206,3.6,5.8,81,0.00,,CLR,0.00,VWS V13.00,2013-03-11 03:54:00,
2013-03-10 23:59:00,34.3,29.1,30.22,SSE,152,4.9,5.8,81,0.00,,CLR,0.00,VWS V13.00,2013-03-11 03:59:00,